Weather reports worldwide

Advertisment
Chivenor, United Kingdom (3707): temperature & dewpoint: 28.07.2020 22:00:00 - 03.08.2020 22:00:00 (BST)Chivenor, United Kingdom (3707): temperature -20cm & temperature -100cm: 28.07.2020 22:00:00 - 03.08.2020 22:00:00 (BST)Chivenor, United Kingdom (3707): wind speed: 28.07.2020 22:00:00 - 03.08.2020 22:00:00 (BST)Chivenor, United Kingdom (3707): wind direction: 28.07.2020 22:00:00 - 03.08.2020 22:00:00 (BST)Chivenor, United Kingdom (3707): reduced air pressure: 28.07.2020 22:00:00 - 03.08.2020 22:00:00 (BST)Chivenor, United Kingdom (3707): visibility: 28.07.2020 22:00:00 - 03.08.2020 22:00:00 (BST)Chivenor, United Kingdom (3707): precipitation: 28.07.2020 22:00:00 - 03.08.2020 22:00:00 (BST)
Date & Time tt [°C] td [°C] tt -20cm [°C] tt -100cm [°C] ff [km/h] ff [kn] dd ppp [hPa] vv [km] rr [mm]
03.08.2020 22:00:00 - - - - - - - - - -
03.08.2020 21:00:00 14,5 9,3 - - 11 6 NW 1018,9 45 0,0
03.08.2020 20:00:00 15,2 10,2 - - 15 8 WNW 1018,9 50 0,0
03.08.2020 19:00:00 16,7 8,9 - - 21 11 WNW 1018,6 19 0,0
03.08.2020 18:00:00 17,2 10,1 - - 24 13 NW 1018,6 45 0,0
03.08.2020 17:00:00 17,8 9,6 - - 24 13 WNW 1018,6 50 0,0
03.08.2020 16:00:00 17,7 10,6 - - 22 12 WNW 1018,5 17 0,0
03.08.2020 15:00:00 17,7 11,1 - - 21 11 WNW 1018,7 30 0,0
03.08.2020 14:00:00 18,1 9,7 - - 21 11 WNW 1018,9 40 0,0
03.08.2020 13:00:00 18,0 10,4 - - 16 9 NW 1018,9 40 0,0
03.08.2020 12:00:00 18,0 9,0 - - 21 11 NW 1018,9 40 0,0
03.08.2020 11:00:00 17,3 10,7 - - 16 9 NW 1018,6 40 0,0
03.08.2020 10:00:00 16,6 12,1 17,9 17,7 15 8 NW 1018,4 50 0,0
03.08.2020 09:00:00 15,8 13,3 - - 4 2 W 1018,3 30 0,0
03.08.2020 08:00:00 14,5 12,9 - - 4 2 E 1017,9 40 0,0
03.08.2020 07:00:00 12,2 11,3 - - 9 5 E 1017,3 29 0,0
03.08.2020 06:00:00 12,1 11,1 - - 5 3 E 1017,3 23 0,0
03.08.2020 05:00:00 12,2 11,0 - - 8 4 E 1017,0 29 0,0
03.08.2020 04:00:00 12,1 10,9 - - 9 5 E 1017,1 35 0,0
03.08.2020 03:00:00 12,5 11,0 - - 4 2 E 1017,4 40 0,0
03.08.2020 02:00:00 13,9 11,6 - - 4 2 NNW 1017,7 35 0,0
03.08.2020 01:00:00 13,5 11,0 - - 5 3 NW 1017,8 35 0,0
03.08.2020 00:00:00 14,2 11,2 - - 11 6 NW 1017,7 45 0,0
02.08.2020 23:00:00 14,4 11,2 - - 13 7 NW 1017,7 50 0,0
02.08.2020 22:00:00 14,9 11,4 - - 16 9 WNW 1017,8 50 0,0
02.08.2020 21:00:00 14,8 10,9 - - 15 8 WNW 1017,7 45 0,0
02.08.2020 20:00:00 15,7 10,9 - - 18 10 WNW 1017,6 50 0,0
02.08.2020 19:00:00 16,0 10,6 - - 16 9 W 1017,6 50 0,0
02.08.2020 18:00:00 16,6 11,4 - - 18 10 WNW 1017,7 35 0,0
02.08.2020 17:00:00 17,3 12,0 - - 26 14 WNW 1017,8 50 0,0
02.08.2020 16:00:00 17,6 13,1 - - 18 10 WNW 1017,7 30 0,0
02.08.2020 15:00:00 18,8 12,7 - - 16 9 WNW 1017,8 40 0,0
02.08.2020 14:00:00 17,9 12,8 - - 18 10 WNW 1017,9 30 0,0
02.08.2020 13:00:00 18,4 13,7 - - 24 13 WNW 1018,0 40 0,0
02.08.2020 12:00:00 18,8 13,2 - - 16 9 W 1018,1 40 0,0
02.08.2020 11:00:00 17,6 12,9 - - 15 8 WSW 1018,3 35 0,0
02.08.2020 10:00:00 15,8 13,1 18,0 17,7 21 11 W 1018,3 14 0,0
02.08.2020 09:00:00 16,6 12,4 - - 16 9 W 1018,2 40 0,0
02.08.2020 08:00:00 15,5 13,2 - - 15 8 W 1018,0 27 0,0
02.08.2020 07:00:00 15,2 12,8 - - 16 9 W 1017,6 40 0,0
02.08.2020 06:00:00 14,9 12,4 - - 15 8 W 1017,6 40 0,0
02.08.2020 05:00:00 14,6 12,5 - - 15 8 WNW 1017,6 35 0,0
02.08.2020 04:00:00 14,4 12,3 - - 21 11 WNW 1017,7 40 0,0
02.08.2020 03:00:00 15,2 12,4 - - 16 9 W 1017,8 40 0,0
02.08.2020 02:00:00 15,6 12,5 - - 16 9 W 1018,0 35 0,0
02.08.2020 01:00:00 15,0 11,5 - - 21 11 W 1018,5 40 0,0
02.08.2020 00:00:00 15,4 11,9 - - 18 10 W 1018,6 40 0,0
01.08.2020 23:00:00 15,1 10,9 - - 18 10 W 1018,8 40 0,0
01.08.2020 22:00:00 15,8 11,7 - - 24 13 W 1018,7 30 0,0
01.08.2020 21:00:00 15,6 11,9 - - 16 9 W 1018,4 20 0,0
01.08.2020 20:00:00 16,5 11,5 - - 21 11 W 1018,1 45 0,0
01.08.2020 19:00:00 16,9 11,2 - - 24 13 W 1018,2 30 0,0
01.08.2020 18:00:00 16,9 11,6 - - 22 12 W 1018,4 50 0,0
01.08.2020 17:00:00 17,0 11,3 - - 22 12 WNW 1018,4 40 0,0
01.08.2020 16:00:00 18,0 12,9 - - 21 11 W 1018,5 17 0,0
01.08.2020 15:00:00 18,5 10,7 - - 15 8 W 1018,3 40 0,0
01.08.2020 14:00:00 18,3 12,3 - - 24 13 WNW 1018,0 26 0,0
01.08.2020 13:00:00 17,8 12,8 - - 29 16 NW 1017,8 22 0,0
01.08.2020 12:00:00 17,8 13,9 - - 21 11 WNW 1017,4 30 0,0
01.08.2020 11:00:00 16,8 13,9 - - 26 14 WNW 1017,0 45 0,2
01.08.2020 10:00:00 16,3 14,6 18,4 17,5 26 14 W 1016,4 6 0,0
01.08.2020 09:00:00 17,2 14,1 - - 22 12 WSW 1016,0 40 0,0
01.08.2020 08:00:00 16,3 14,2 - - 24 13 W 1015,6 35 0,0
01.08.2020 07:00:00 16,1 15,4 - - 15 8 W 1015,0 11 1,0
01.08.2020 06:00:00 16,4 15,4 - - 11 6 W 1014,8 15 1,4
01.08.2020 05:00:00 16,7 15,4 - - 16 9 W 1014,6 13 0,0
01.08.2020 04:00:00 16,6 15,4 - - 13 7 SW 1014,6 23 0,0
01.08.2020 03:00:00 16,1 15,0 - - 8 4 S 1014,4 21 0,0
01.08.2020 02:00:00 15,5 13,7 - - 8 4 SSE 1014,5 22 0,0
01.08.2020 01:00:00 16,3 14,3 - - 9 5 SSW 1014,5 29 0,0
01.08.2020 00:00:00 17,1 15,0 - - 8 4 SW 1014,2 35 0,0
31.07.2020 23:00:00 16,7 14,7 - - 8 4 SW 1013,9 35 0,0
31.07.2020 22:00:00 16,5 14,6 - - 15 8 W 1013,6 23 0,0
31.07.2020 21:00:00 16,9 14,8 - - 15 8 W 1013,2 27 0,0
31.07.2020 20:00:00 18,3 14,8 - - 16 9 W 1012,9 40 0,0
31.07.2020 19:00:00 18,5 14,7 - - 21 11 W 1012,5 40 0,0
31.07.2020 18:00:00 18,7 15,6 - - 16 9 W 1012,1 35 0,0
31.07.2020 17:00:00 19,9 17,5 - - 21 11 W 1011,6 45 0,0
31.07.2020 16:00:00 20,4 17,4 - - 16 9 W 1011,3 45 0,0
31.07.2020 15:00:00 21,5 17,5 - - 21 11 W 1011,1 30 0,0
31.07.2020 14:00:00 22,2 16,2 - - 18 10 W 1010,5 27 0,0
31.07.2020 13:00:00 20,8 16,2 - - 22 12 W 1010,5 28 0,0
31.07.2020 12:00:00 22,7 15,8 - - 21 11 NW 1009,9 15 0,0
31.07.2020 11:00:00 25,0 15,6 - - 13 7 W 1009,3 22 0,0
31.07.2020 10:00:00 23,1 15,4 18,0 17,4 11 6 ESE 1008,8 26 0,0
31.07.2020 09:00:00 21,6 14,6 - - 16 9 SE 1009,2 40 0,0
31.07.2020 08:00:00 19,4 12,6 - - 13 7 ESE 1008,9 45 0,0
31.07.2020 07:00:00 17,2 12,7 - - 16 9 ESE 1008,6 45 0,0
31.07.2020 06:00:00 16,6 11,7 - - 22 12 ESE 1008,6 45 0,0
31.07.2020 05:00:00 17,1 11,4 - - 24 13 E 1008,8 45 0,0
31.07.2020 04:00:00 17,5 11,0 - - 22 12 E 1009,9 40 0,0
31.07.2020 03:00:00 16,7 10,9 - - 18 10 E 1010,7 50 0,0
31.07.2020 02:00:00 16,0 11,0 - - 22 12 E 1011,6 50 0,0
31.07.2020 01:00:00 16,1 11,2 - - 18 10 E 1012,6 50 0,0
31.07.2020 00:00:00 15,6 11,6 - - 22 12 E 1013,6 50 0,0
30.07.2020 23:00:00 15,9 11,4 - - 21 11 ESE 1013,7 45 0,0
30.07.2020 22:00:00 17,0 11,3 - - 21 11 ESE 1013,4 50 0,0
30.07.2020 21:00:00 18,8 11,7 - - 13 7 SE 1013,4 50 0,0
30.07.2020 20:00:00 21,8 11,4 - - 21 11 SE 1013,4 45 0,0
30.07.2020 19:00:00 23,6 11,3 - - 24 13 SE 1013,6 50 0,0
30.07.2020 18:00:00 24,6 13,0 - - 21 11 ESE 1014,1 50 0,0
30.07.2020 17:00:00 25,1 13,4 - - 21 11 SE 1014,8 28 0,0
30.07.2020 16:00:00 24,8 14,1 - - 24 13 ESE 1015,2 35 0,0
30.07.2020 15:00:00 24,4 12,0 - - 24 13 SE 1015,8 30 0,0
30.07.2020 14:00:00 24,6 13,2 - - 22 12 SE 1015,9 45 0,0
30.07.2020 13:00:00 23,5 14,1 - - 18 10 ESE 1016,3 40 0,0
30.07.2020 12:00:00 21,9 12,2 - - 21 11 ESE 1016,8 20 0,0
30.07.2020 11:00:00 20,8 13,1 - - 18 10 SE 1017,4 50 0,0
30.07.2020 10:00:00 18,5 13,1 17,4 17,4 21 11 ESE 1017,5 35 0,0
30.07.2020 09:00:00 16,5 12,3 - - 15 8 SE 1017,7 22 0,0
30.07.2020 08:00:00 14,4 12,4 - - 13 7 ESE 1018,0 30 0,0
30.07.2020 07:00:00 12,3 11,2 - - 13 7 ENE 1018,1 26 0,0
30.07.2020 06:00:00 11,6 10,6 - - 13 7 E 1018,2 30 0,0
30.07.2020 05:00:00 11,7 10,6 - - 13 7 E 1018,1 26 0,0
30.07.2020 04:00:00 13,2 11,6 - - 9 5 E 1018,5 40 0,0
30.07.2020 03:00:00 13,2 11,7 - - 11 6 ESE 1018,7 45 0,0
30.07.2020 02:00:00 13,3 11,1 - - 5 3 SE 1019,3 50 0,0
30.07.2020 01:00:00 13,0 11,2 - - 9 5 SE 1019,5 45 0,0
30.07.2020 00:00:00 13,5 11,7 - - 9 5 SE 1019,5 45 0,0
29.07.2020 23:00:00 15,1 12,5 - - 8 4 SSE 1019,7 50 0,0
29.07.2020 22:00:00 15,8 12,1 - - 4 2 SSE 1019,9 35 0,0
29.07.2020 21:00:00 16,0 12,1 - - 4 2 WNW 1019,9 50 0,0
29.07.2020 20:00:00 16,5 11,6 - - 9 5 WNW 1019,9 30 0,0
29.07.2020 19:00:00 16,6 12,1 - - 13 7 WNW 1020,1 50 0,0
29.07.2020 18:00:00 17,2 11,8 - - 15 8 NW 1020,3 23 0,0
29.07.2020 17:00:00 18,0 11,2 - - 18 10 NW 1020,5 30 0,0
29.07.2020 16:00:00 18,3 12,7 - - 18 10 NW 1020,6 45 0,0
29.07.2020 15:00:00 17,6 11,9 - - 18 10 NW 1020,7 30 0,0
29.07.2020 14:00:00 18,1 12,5 - - 15 8 W 1020,9 45 0,0
29.07.2020 13:00:00 18,3 12,8 - - 13 7 WNW 1021,2 27 0,0
29.07.2020 12:00:00 17,8 12,0 - - 8 4 W 1021,4 26 0,0
29.07.2020 11:00:00 16,8 12,0 - - 13 7 WSW 1021,6 35 0,0
29.07.2020 10:00:00 15,6 12,3 17,0 17,4 5 3 E 1021,6 30 0,0
29.07.2020 09:00:00 13,9 11,7 - - 9 5 E 1021,3 29 0,0
29.07.2020 08:00:00 11,6 10,2 - - 13 7 E 1021,1 28 0,0
29.07.2020 07:00:00 9,5 8,7 - - 13 7 E 1021,2 25 0,0
29.07.2020 06:00:00 9,2 8,1 - - 13 7 E 1020,8 35 0,0
29.07.2020 05:00:00 10,1 9,0 - - 13 7 E 1020,7 40 0,0
29.07.2020 04:00:00 10,6 9,2 - - 11 6 E 1020,7 35 0,0
29.07.2020 03:00:00 10,9 9,3 - - 13 7 E 1020,8 40 0,0
29.07.2020 02:00:00 10,8 9,5 - - 13 7 E 1020,9 45 0,0
29.07.2020 01:00:00 10,7 8,9 - - 11 6 E 1020,9 35 0,0
29.07.2020 00:00:00 13,1 10,7 - - 5 3 NW 1021,1 35 0,0
28.07.2020 23:00:00 13,1 10,2 - - 5 3 NW 1021,0 30 0,0
28.07.2020 22:00:00 13,4 9,3 - - 13 7 WNW 1020,6 35 0,0

tt = temperature
td = dewpoint
tt -20cm = temperature -20cm
tt -100cm = temperature -100cm
ff = wind speed
dd = wind direction
ppp = reduced air pressure
vv = visibility
rr = precipitation

Next stations